• Processing (Info)

  • MPEC 2008-H53 : 2008 HQ3

    The following Minor Planet Electronic Circular may be linked-to from your own Web pages, but must not otherwise be redistributed electronically.

    A form allowing access to any MPEC is at the bottom of this page.


    Read MPEC 2008-H52 Read MPEC 2008-H54


    M.P.E.C. 2008-H53                                Issued 2008 Apr. 30, 14:13 UT
    
         The Minor Planet Electronic Circulars contain information on unusual
             minor planets and routine data on comets.  They are published
       on behalf of Commission 20 of the International Astronomical Union by the
              Minor Planet Center, Smithsonian Astrophysical Observatory,
                              Cambridge, MA 02138, U.S.A.
    
                 Prepared using the Tamkin Foundation Computer Network
    
                                  MPC@CFA.HARVARD.EDU
              URL http://www.cfa.harvard.edu/iau/mpc.html  ISSN 1523-6714
    
                                       2008 HQ3
    
    Observations:
         K08H03Q* C2008 04 29.25004 13 34 12.28 -01 05 29.7          20.4 V EH053G96
         K08H03Q  C2008 04 29.25617 13 34 18.19 -01 05 50.2          20.6 V EH053G96
         K08H03Q  C2008 04 29.26242 13 34 24.13 -01 06 10.9          20.8 V EH053G96
         K08H03Q  C2008 04 29.26851 13 34 30.00 -01 06 30.9          20.7 V EH053G96
         K08H03Q  C2008 04 29.29667 13 34 56.89 -01 08 03.5          20.9 V EH053G96
         K08H03Q  C2008 04 29.29784 13 34 57.93 -01 08 07.3          20.1 V EH053G96
         K08H03Q  C2008 04 29.29900 13 34 59.05 -01 08 11.1          20.9 V EH053G96
         K08H03Q  C2008 04 29.30014 13 35 00.13 -01 08 14.6          20.9 V EH053G96
         K08H03Q  C2008 04 29.38720 13 36 23.79 -01 12 57.9          21.0 V EH053G96
         K08H03Q  C2008 04 29.38773 13 36 24.33 -01 12 59.9          20.7 V EH053G96
         K08H03Q  C2008 04 29.38827 13 36 24.84 -01 13 01.9          20.6 V EH053G96
         K08H03Q  C2008 04 29.38882 13 36 25.38 -01 13 03.2          20.7 V EH053G96
         K08H03Q  C2008 04 30.28309 13 51 34.20 -01 59 08.8          20.7 V EH053G96
         K08H03Q  C2008 04 30.28362 13 51 34.63 -01 59 10.2          20.8 V EH053G96
         K08H03Q  C2008 04 30.28416 13 51 35.10 -01 59 11.8          20.7 V EH053G96
         K08H03Q  C2008 04 30.28469 13 51 35.56 -01 59 13.2          21.1 V EH053G96
    
    Observer details:
    G96 Mt. Lemmon Survey.  Observers A. Boattini, R. E. Hill.  Measurers
        E. C. Beshore, A. Boattini, G. J. Garradd, A. R. Gibbs, A. D. Grauer,
        R. E. Hill, R. A. Kowalski, S. M. Larson, R. H. McNaught.  1.5-m reflector
        + CCD.
    
    Orbital elements:
    2008 HQ3                                                 Earth MOID = 0.0070 AU
    Epoch 2008 May 14.0 TT = JDT 2454600.5                  MPC
    M  28.17709              (2000.0)            P               Q
    n   0.62819605     Peri.  334.26133     -0.99414740     +0.10677330
    a   1.3502243      Node   211.88131     -0.09295991     -0.92303027
    e   0.2600221      Incl.    1.78420     -0.05504009     -0.36961411
    P   1.57           H   27.6           G   0.15           U   8
    Residuals in seconds of arc
    080429 G96  0.2-  0.1+    080429 G96  0.3-  0.0     080430 G96  0.0   0.1-
    080429 G96  0.4+  0.1-    080429 G96  0.4-  0.3+    080430 G96  0.2-  0.0
    080429 G96  0.2-  0.2-    080429 G96  0.1-  0.2+    080430 G96  0.0   0.0
    080429 G96  0.5+  0.1-    080429 G96  0.2+  0.1-    080430 G96  0.2+  0.1+
    080429 G96  0.6+  0.0     080429 G96  0.0   0.3-
    080429 G96  0.5-  0.0     080429 G96  0.1+  0.1+
    
    Ephemeris:
    2008 HQ3                 a,e,i = 1.35, 0.26, 2                   q = 0.9991
    Date    TT    R. A. (2000) Decl.     Delta      r     Elong.  Phase     V
    2008 04 24    11 33.94   +04 53.0    0.0220   1.022   138.0    41.2    21.0
    2008 04 25    12 00.21   +03 40.0    0.0223   1.024   143.4    35.9    20.9
    2008 04 26    12 25.31   +02 27.1    0.0230   1.026   148.5    30.8    20.8
    2008 04 27    12 48.73   +01 16.9    0.0239   1.028   153.1    26.3    20.7
    2008 04 28    13 10.21   +00 11.3    0.0251   1.030   157.1    22.4    20.7
    2008 04 29    13 29.62   -00 48.5    0.0265   1.032   160.4    19.1    20.8
    2008 04 30    13 47.00   -01 42.1    0.0281   1.034   163.1    16.4    20.8
    2008 05 01    14 02.46   -02 29.8    0.0299   1.037   165.2    14.4    20.9
    2008 05 02    14 16.18   -03 12.0    0.0318   1.039   166.7    12.9    21.0
    2008 05 03    14 28.32   -03 49.3    0.0338   1.041   167.7    11.9    21.1
    2008 05 04    14 39.09   -04 22.2    0.0359   1.044   168.3    11.3    21.2
    2008 05 05    14 48.64   -04 51.5    0.0381   1.046   168.6    11.0    21.3
    2008 05 06    14 57.13   -05 17.6    0.0404   1.049   168.7    10.9    21.4
    2008 05 07    15 04.71   -05 41.1    0.0428   1.051   168.7    10.8    21.5
    2008 05 08    15 11.49   -06 02.3    0.0452   1.054   168.6    10.9    21.7
    2008 05 09    15 17.57   -06 21.6    0.0477   1.056   168.6    10.9    21.8
    2008 05 10    15 23.04   -06 39.2    0.0503   1.059   168.5    11.0    21.9
    2008 05 11    15 27.98   -06 55.4    0.0529   1.062   168.4    11.0    22.0
    2008 05 12    15 32.46   -07 10.5    0.0555   1.065   168.4    11.0    22.1
    2008 05 13    15 36.52   -07 24.5    0.0582   1.068   168.3    11.0    22.3
    2008 05 14    15 40.21   -07 37.7    0.0610   1.070   168.3    11.0    22.4
    
    Timothy B. Spahr             (C) Copyright 2008 MPC           M.P.E.C. 2008-H53
    

    Read MPEC 2008-H52 Read MPEC 2008-H54


    MPEC number:

    Enter an MPEC number in one of the following forms:

    • 1997-B01 (the full form)
    • J97B01 (the packed version of the full form)
    • B01 (the abbreviated form)